Location: Newark
(20.0000°S, 47.0000°E)
Time: 13:29:21
(UTC+00:00)

N. Korean satellite - Pass Details

Date: 23 August 2020
Orbit: 455 x 503 km, 97.2° (Epoch: 20 September)

Event Time Altitude Azimuth Distance (km) Brightness Sun altitude
Rises 01:11:30 0° 40° (NE) 2,585 10.8 -27.9°
Reaches altitude 10° 01:13:59 10° 57° (ENE) 1,710 10.1 -27.3°
Maximum altitude 01:16:43 20° 105° (ESE) 1,216 9.3 -26.7°
Drops below altitude 10° 01:19:28 10° 153° (SSE) 1,720 9.6 -26.0°
Sets 01:21:57 0° 170° (S) 2,607 10.4 -25.5°
